Volver al catálogo

KYOKKO 1

EXOS A

ActivoCienciaUNKNOWN
NORAD 10664·PAYLOAD·🇯🇵 Japan

Lanzado Feb 4, 1978 desde Uchinoura Space Center

Loading…

Próximos Pases (próximas 24 horas)

TLE

ActualizadoSource: Space-Track

Época: Sep 14, 2026, 02:01 UTC

1 10664U 78014A   26257.08414707  .00000041  00000-0  95133-4 0  9990
2 10664  65.3674 150.7335 1906627 352.7719   4.8928 10.75912097892336

Sigue KYOKKO 1 en tiempo real con AllMySat

Download on the App Store